This is the latest recevied weather packets stored in our database for station/object K5KHP. If no packets are shown the sender has not sent any weather packets the latest 10 day(s).
| Time | Temp. | Humidity | Pressure | Rain* | Wind** | Luminosity | Snow |
|---|---|---|---|---|---|---|---|
| 1777916796 | 18.33° C | 63% | 1015.2 hPa | 0 mm | - | 750 W/m² | - |
| 1777916491 | 17.78° C | 64% | 1015.3 hPa | 0 mm | - | 724 W/m² | - |
| 1777916189 | 17.78° C | 64% | 1015.2 hPa | 0 mm | - | 467 W/m² | - |
| 1777915886 | 17.78° C | 64% | 1014.9 hPa | 0 mm | - | 766 W/m² | - |
| 1777915582 | 17.78° C | 64% | 1015.1 hPa | 0 mm | - | 419 W/m² | - |
| 1777915279 | 17.78° C | 64% | 1014.8 hPa | 0 mm | - | 374 W/m² | - |
| 1777914975 | 18.33° C | 62% | 1015 hPa | 0 mm | - | 459 W/m² | - |
| 1777914673 | 17.78° C | 63% | 1014.9 hPa | 0 mm | - | 617 W/m² | - |
| 1777914368 | 17.78° C | 64% | 1014.9 hPa | 0 mm | - | 476 W/m² | - |
| 1777914067 | 17.78° C | 64% | 1015 hPa | 0 mm | - | 451 W/m² | - |
| 1777913762 | 17.22° C | 63% | 1014.8 hPa | 0 mm | - | 544 W/m² | - |
| 1777913459 | 17.78° C | 63% | 1015 hPa | 0 mm | - | 501 W/m² | - |
| 1777913155 | 17.78° C | 63% | 1014.8 hPa | 0 mm | - | 491 W/m² | - |
| 1777912852 | 17.78° C | 63% | 1014.8 hPa | 0 mm | - | 478 W/m² | - |
| 1777912548 | 17.22° C | 64% | 1014.8 hPa | 0 mm | - | 451 W/m² | - |
| 1777912245 | 17.22° C | 65% | 1014.8 hPa | 0 mm | - | 462 W/m² | - |
| 1777911941 | 17.22° C | 66% | 1015 hPa | 0 mm | - | 455 W/m² | - |
| 1777911637 | 16.67° C | 68% | 1014.9 hPa | 0 mm | - | 430 W/m² | - |
| 1777911333 | 16.67° C | 71% | 1014.7 hPa | 0 mm | - | 132 W/m² | - |
| 1777911031 | 16.11° C | 73% | 1014.8 hPa | 0 mm | - | 278 W/m² | - |
| 1777910729 | 16.11° C | 71% | 1014.8 hPa | 0 mm | - | 358 W/m² | - |
| 1777910425 | 16.11° C | 73% | 1014.9 hPa | 0 mm | - | 170 W/m² | - |
| 1777910121 | 16.11° C | 74% | 1014.8 hPa | 0 mm | - | 287 W/m² | - |
| 1777909820 | 16.11° C | 75% | 1014.7 hPa | 0 mm | - | 276 W/m² | - |
| 1777909516 | 16.11° C | 75% | 1014.6 hPa | 0 mm | - | 185 W/m² | - |
* Rain latest hour (hover to see other rain measurements)
** Current wind speed in m/s (hover to see current wind gust speed)